This is the latest recevied weather packets stored in our database for station/object KA7EII-13. If no packets are shown the sender has not sent any weather packets the latest 10 day(s).
| Time | Temp. | Humidity | Pressure | Rain* | Wind** | Luminosity | Snow |
|---|---|---|---|---|---|---|---|
| 1777583870 | 16.11° C | 27% | 1108.6 hPa | 0 mm | - | 630 W/m² | - |
| 1777583566 | 15.56° C | 29% | 1108.9 hPa | 0 mm | - | 650 W/m² | - |
| 1777583264 | 15.56° C | 23% | 1108.7 hPa | 0 mm | - | 689 W/m² | - |
| 1777582964 | 16.11° C | 26% | 1108.7 hPa | 0 mm | - | 683 W/m² | - |
| 1777582662 | 16.67° C | 24% | 1108.7 hPa | 0 mm | - | 698 W/m² | - |
| 1777582357 | 15° C | 27% | 1108.7 hPa | 0 mm | - | 698 W/m² | - |
| 1777582055 | 15.56° C | 26% | 1108.7 hPa | 0 mm | - | 705 W/m² | - |
| 1777581750 | 15.56° C | 25% | 1108.6 hPa | 0 mm | - | 714 W/m² | - |
| 1777581449 | 15.56° C | 25% | 1108.9 hPa | 0 mm | - | 676 W/m² | - |
| 1777581144 | 16.11° C | 25% | 1108.4 hPa | 0 mm | - | 688 W/m² | - |
| 1777580839 | 15.56° C | 27% | 1109 hPa | 0 mm | - | 688 W/m² | - |
| 1777580534 | 15.56° C | 25% | 1109 hPa | 0 mm | - | 704 W/m² | - |
| 1777580230 | 15.56° C | 26% | 1109.1 hPa | 0 mm | - | 723 W/m² | - |
| 1777579927 | 15° C | 27% | 1109.1 hPa | 0 mm | - | 707 W/m² | - |
| 1777579622 | 15° C | 26% | 1109 hPa | 0 mm | - | 747 W/m² | - |
| 1777579316 | 15° C | 25% | 1109 hPa | 0 mm | - | 754 W/m² | - |
| 1777579012 | 15.56° C | 27% | 1109 hPa | 0 mm | - | 759 W/m² | - |
| 1777578707 | 15° C | 26% | 1109.3 hPa | 0 mm | - | 783 W/m² | - |
| 1777578406 | 13.89° C | 27% | 1109 hPa | 0 mm | - | 750 W/m² | - |
| 1777578102 | 14.44° C | 25% | 1109.3 hPa | 0 mm | - | 700 W/m² | - |
| 1777577798 | 15° C | 26% | 1109.2 hPa | 0 mm | - | 721 W/m² | - |
| 1777577493 | 14.44° C | 27% | 1109.3 hPa | 0 mm | - | 742 W/m² | - |
| 1777577191 | 13.89° C | 28% | 1109.4 hPa | 0 mm | - | 759 W/m² | - |
| 1777576887 | 14.44° C | 29% | 1109.5 hPa | 0 mm | - | 733 W/m² | - |
| 1777576581 | 14.44° C | 28% | 1109.2 hPa | 0 mm | - | 721 W/m² | - |
* Rain latest hour (hover to see other rain measurements)
** Current wind speed in m/s (hover to see current wind gust speed)